Weather Roundup
Issued by NWS Chicago, IL

Home | Current Version | Previous Version | Text Only | Print | Product List | Glossary Off
Versions: 1 2 3 4 5 6 7 8 9 10 11 12 13 14 15 16 17 18 19 20 21 22 23 24 25 26 27 28 29 30 31 32 33 34 35 36 37 38 39 40 41 42 43 44 45 46 47 48 49 50

588
NZUS59 KLOT 241503
HRRLOT

CHICAGO AREA WEATHER ROUNDUP
NATIONAL WEATHER SERVICE CHICAGO/ROMEOVILLE IL
1000 AM CDT WED AUG 24 2016

NOTE: "FAIR" INDICATES FEW OR NO CLOUDS BELOW 12,000 FEET WITH NO
SIGNIFICANT WEATHER AND/OR OBSTRUCTIONS TO VISIBILITY.

* THESE STATIONS ARE NOT UNDER NWS QUALITY CONTROL. THEY ALSO MAY NOT
  REPORT WEATHER SUCH AS PRECIPITATION OR FOG.

ILZ005-006-012>014-019>023-241600-
NORTHEAST ILLINOIS

CITY           SKY/WX    TMP DP  RH WIND       PRES   REMARKS
OHARE          LGT RAIN  72  70  93 S9        29.98F
MIDWAY         LGT RAIN  74  71  91 S9        29.98F
AURORA         LGT RAIN  73  71  93 S6        30.00S FOG
LANSING*       LGT RAIN  72  69  92 S10       30.02F
JOLIET*        CLOUDY    74  73  96 S9        29.98F
WAUKEGAN       PTSUNNY   72  70  93 S10       29.94F
DUPAGE AIRPORT CLOUDY    73  70  90 S6        29.97F
WHEELING       CLOUDY    72  70  93 S10       29.99F
KANKAKEE*      RAIN      72  71  96 S12       30.02F
MORRIS*        HVY RAIN  72  71  95 S6        29.97S
LEWIS AIRPORT* LGT RAIN  72  70  93 S10       29.99F
NORTHERLY ISL    N/A     72  69  90 S7          N/A
$$

WIZ051-052-058>065-066-070>072-241600-
SOUTHEAST WISCONSIN

CITY           SKY/WX    TMP DP  RH WIND       PRES   REMARKS
MILWAUKEE      CLOUDY    74  70  87 S13       29.92F
KENOSHA*       CLOUDY    73  71  93 S13       29.94F
RACINE*        LGT RAIN  72  69  90 S7        29.96F
BURLINGTON     CLOUDY    69  67  90 SW3       29.95R
WAUKESHA       PTSUNNY   70  66  88 S10G18    29.95R
$$

INZ001>003-010>013-019-020-241600-
NORTHWEST INDIANA

CITY           SKY/WX    TMP DP  RH WIND       PRES   REMARKS
GARY*          LGT RAIN  73  72  94 S9        30.03F
MICHIGAN CITY* NOT AVBL
RENSSELAER*    NOT AVBL
VALPARAISO     LGT RAIN  71  69  93 S7        30.06R
$$

LMZ740>746-241600-
SOUTHERN LAKE MICHIGAN

STATION/POSITION TIME  SKY/WX   TEMP WIND        PRES    VSBY
                                AIR  DIR/SP/G
                 (UTC)          (F)  (DEG/KT/KT) (MB)    (MI)
HARRISON CRIB    1400            73  210/ 14/ 16   N/A
BURNHAM HARBOR   1500            72  190/  7/ 11   N/A
CALUMET HARBOR   1400            72  200/  7/ 11 1015.9F
BURNS HARBOR     1405            73  190/ 12/ 20 1017.3S
MICHIGAN CITY    1400            72  150/ 12/ 14   N/A
$$

ABBREVIATIONS USED IN REMARKS
   TC - TEMPERATURE IN CELSIUS
  WCI - WIND CHILL INDEX
   HX - HEAT INDEX
  VSB - VISIBILITY
$$




USA.gov is the U.S. government's official web portal to all federal, state and local government web resources and services.